Orbital Elements at Epoch 2459200.5 (2020-Dec-17.0) TDB
Reference: JPL 15 (heliocentric ecliptic J2000)
Element | Value | Uncertainty (1-sigma) | Units |
e | .2124410540360676 | 4.5766e-08 | |
a | 3.077204314791242 | 3.3789e-08 | au |
q | 2.423479786672655 | 1.4482e-07 | au |
i | 11.44453952310647 | 8.5797e-06 | deg |
node | 332.5128845988493 | 2.6142e-05 | deg |
peri | 89.43913759022551 | 3.3647e-05 | deg |
M | 272.0292088604766 | 2.4369e-05 | deg |
tp | 2459682.302359908201 (2022-Apr-12.80235991) | 0.00013876 | TDB |
period | 1971.664086683715 5.40 | 3.2474e-05 8.891e-08 | d yr |
n | .1825868830453316 | 3.0073e-09 | deg/d |
Q | 3.730928842909829 | 4.0967e-08 | au |
|
| | Orbit Determination Parameters
Additional Information
|